Date String (YYYY-MM-DD hh:mm:ss) UTC,Instrument flags,Ambient pressure (hPa),Sample flow (lpm),Bypass flow (lpm),Sample temperature (°C),Ambient temperature (°C),ASC tube jacket temperature (°C),LED temperature (°C),Box temperature (°C),Sample RH (%),Span deviation,Mass concentration (μg/m³),Mass concentration (μg/m³),Mass concentration (μg/m³)
DateTimeUTC,F1_M11,P_M11,Q1_M11,Q2_M11,T1_M11,T2_M11,T3_M11,T4_M11,T5_M11,U1_M11,ZSPAN_M11,X0_M11,X2_M11,X1_M11
2022-07-21 10:00:00,,0829.2,5.00,0.00,29.8,27.5,00.0,38.6,31.5,24.7,0000.0,0014.61,0005.64,0004.29
2022-07-21 10:01:00,,0829.0,5.00,0.00,29.8,27.6,00.0,38.5,31.5,24.3,0000.0,0014.83,0005.73,0004.33
2022-07-21 10:02:00,,0828.7,5.02,0.00,29.7,27.7,00.0,38.5,31.5,23.8,0000.0,0013.83,0005.81,0004.37
2022-07-21 10:03:00,,0828.7,5.00,0.00,29.7,27.9,00.0,38.5,31.5,24.0,0000.0,0013.60,0005.85,0004.43
2022-07-21 10:04:00,,0828.7,4.99,0.00,29.7,28.0,00.0,38.5,31.5,23.2,0000.0,0015.06,0005.97,0004.48
2022-07-21 10:05:00,,0828.7,5.01,0.00,29.7,28.1,00.0,38.5,31.6,23.4,0000.0,0015.61,0006.09,0004.54
2022-07-21 10:06:00,,0828.6,5.00,0.00,29.7,28.2,00.0,38.5,31.6,23.8,0000.0,0015.79,0006.16,0004.58
2022-07-21 10:07:00,,0829.0,4.99,0.00,29.7,28.3,00.0,38.6,31.6,23.8,0000.0,0015.74,0006.28,0004.64
2022-07-21 10:08:00,,0829.0,5.00,0.00,29.8,28.4,00.0,38.6,31.7,24.1,0000.0,0016.10,0006.32,0004.68
2022-07-21 10:09:00,,0829.1,5.01,0.00,29.8,28.5,00.0,38.6,31.7,23.9,0000.0,0016.60,0006.41,0004.73
2022-07-21 10:10:00,,0829.1,4.99,0.00,29.8,28.6,00.0,38.6,31.7,22.8,0000.0,0016.41,0006.46,0004.76
2022-07-21 10:11:00,,0829.2,5.01,0.00,29.8,28.6,00.0,38.6,31.8,23.1,0000.0,0016.16,0006.51,0004.78
2022-07-21 10:12:00,,0829.0,4.99,0.00,29.9,28.7,00.0,38.6,31.8,24.0,0000.0,0016.41,0006.40,0004.77
2022-07-21 10:13:00,,0829.1,5.01,0.00,29.9,28.8,00.0,38.6,31.8,24.1,0000.0,0016.97,0006.39,0004.77
2022-07-21 10:14:00,,0829.2,4.99,0.00,29.9,28.8,00.0,38.6,31.8,23.2,0000.0,0017.08,0006.40,0004.77
2022-07-21 10:15:00,,0829.1,5.01,0.00,29.9,28.9,00.0,38.7,31.9,23.7,0000.0,0015.92,0006.41,0004.77
2022-07-21 10:16:00,,0828.7,4.99,0.00,30.0,28.9,00.0,38.7,31.9,24.4,0000.0,0016.39,0006.40,0004.78
2022-07-21 10:17:00,,0828.7,5.01,0.00,30.0,28.9,00.0,38.7,31.9,23.7,0000.0,0016.59,0006.44,0004.79
2022-07-21 10:18:00,,0828.7,4.99,0.00,30.0,29.0,00.0,38.7,32.0,22.9,0000.0,0016.66,0006.45,0004.79
2022-07-21 10:19:00,,0829.1,5.00,0.00,30.0,29.0,00.0,38.7,32.0,22.4,0000.0,0016.31,0006.46,0004.78
2022-07-21 10:20:00,,0829.2,4.99,0.00,30.0,28.7,00.0,38.7,31.9,22.2,0000.0,0016.60,0006.38,0004.78
2022-07-21 10:21:00,,0829.1,5.00,0.00,30.0,27.8,00.0,38.6,31.8,22.1,0000.0,0016.67,0006.39,0004.78
2022-07-21 10:22:00,,0829.0,4.99,0.00,30.0,27.5,00.0,38.6,31.7,22.1,0000.0,0016.60,0006.44,0004.78
2022-07-21 10:23:00,,0828.8,5.01,0.00,29.9,27.5,00.0,38.6,31.6,22.1,0000.0,0016.03,0006.48,0004.77
2022-07-21 10:24:00,,0828.7,4.99,0.00,29.8,27.5,00.0,38.6,31.5,22.3,0000.0,0015.65,0006.48,0004.77
2022-07-21 10:25:00,,0828.7,5.00,0.00,29.8,27.7,00.0,38.6,31.5,22.5,0000.0,0015.50,0006.50,0004.76
2022-07-21 10:26:00,,0828.7,5.00,0.00,29.7,27.8,00.0,38.6,31.5,22.7,0000.0,0015.26,0006.45,0004.77
2022-07-21 10:27:00,,0828.7,5.00,0.00,29.7,27.9,00.0,38.6,31.5,22.2,0000.0,0014.66,0006.37,0004.76
2022-07-21 10:28:00,,0828.7,5.00,0.00,29.7,28.1,00.0,38.6,31.6,21.9,0000.0,0014.51,0006.32,0004.74
2022-07-21 10:29:00,,0828.7,4.99,0.00,29.7,28.2,00.0,38.6,31.6,21.6,0000.0,0015.00,0006.30,0004.74
2022-07-21 10:30:00,,0828.7,5.01,0.00,29.8,28.3,00.0,38.6,31.6,21.7,0000.0,0015.14,0006.31,0004.73
2022-07-21 10:31:00,,0828.7,4.99,0.00,29.8,28.4,00.0,38.6,31.6,21.5,0000.0,0014.47,0006.34,0004.72
2022-07-21 10:32:00,,0828.7,5.01,0.00,29.8,28.5,00.0,38.6,31.7,21.4,0000.0,0014.90,0006.28,0004.71
2022-07-21 10:33:00,,0828.7,5.00,0.00,29.8,28.5,00.0,38.6,31.7,21.2,0000.0,0014.67,0006.20,0004.70
2022-07-21 10:34:00,,0828.7,4.99,0.00,29.8,28.6,00.0,38.6,31.7,21.0,0000.0,0014.75,0006.21,0004.70
2022-07-21 10:35:00,,0828.7,5.01,0.00,29.9,28.7,00.0,38.6,31.7,21.2,0000.0,0014.87,0006.26,0004.71
2022-07-21 10:36:00,,0828.9,4.99,0.00,29.9,28.7,00.0,38.6,31.8,20.0,0000.0,0014.79,0006.22,0004.71
2022-07-21 10:37:00,,0828.8,5.01,0.00,29.9,28.8,00.0,38.6,31.8,19.9,0000.0,0014.89,0006.21,0004.69
2022-07-21 10:38:00,,0828.8,4.99,0.00,29.9,28.8,00.0,38.7,31.9,19.7,0000.0,0014.40,0006.20,0004.68
2022-07-21 10:39:00,,0828.7,5.00,0.00,29.9,28.8,00.0,38.7,31.9,19.3,0000.0,0014.71,0006.17,0004.66
2022-07-21 10:40:00,,0828.7,5.01,0.00,30.0,28.9,00.0,38.7,31.9,19.3,0000.0,0013.87,0006.09,0004.64
2022-07-21 10:41:00,,0828.7,5.00,0.00,30.0,28.9,00.0,38.7,31.9,19.2,0000.0,0013.89,0006.05,0004.63
2022-07-21 10:42:00,,0829.1,4.99,0.00,30.0,29.0,00.0,38.7,31.9,19.2,0000.0,0014.08,0006.01,0004.61
2022-07-21 10:43:00,,0829.3,5.00,0.00,30.0,28.9,00.0,38.7,32.0,19.3,0000.0,0013.77,0006.04,0004.61
2022-07-21 10:44:00,,0829.3,5.01,0.00,30.0,28.1,00.0,38.7,31.9,20.1,0000.0,0014.41,0006.05,0004.61
2022-07-21 10:45:00,,0829.3,5.00,0.00,30.0,27.6,00.0,38.6,31.7,20.1,0000.0,0014.47,0006.06,0004.60
2022-07-21 10:46:00,,0829.1,5.00,0.00,29.9,27.5,00.0,38.6,31.7,19.4,0000.0,0014.09,0005.99,0004.58
2022-07-21 10:47:00,,0828.7,5.00,0.00,29.8,27.5,00.0,38.6,31.6,19.3,0000.0,0014.05,0005.96,0004.57
2022-07-21 10:48:00,,0828.8,5.00,0.00,29.8,27.6,00.0,38.6,31.5,19.3,0000.0,0013.93,0005.91,0004.56
2022-07-21 10:49:00,,0828.8,5.00,0.00,29.8,27.8,00.0,38.6,31.5,19.2,0000.0,0014.14,0005.94,0004.55
2022-07-21 10:50:00,,0828.7,5.00,0.00,29.8,27.9,00.0,38.6,31.6,19.2,0000.0,0014.01,0005.99,0004.54
2022-07-21 10:51:00,,0828.9,5.00,0.00,29.8,28.0,00.0,38.6,31.6,19.2,0000.0,0013.94,0006.04,0004.55
2022-07-21 10:52:00,,0829.2,5.00,0.00,29.8,28.1,00.0,38.6,31.6,19.1,0000.0,0013.77,0006.02,0004.55
2022-07-21 10:53:00,,0829.2,4.99,0.00,29.8,28.3,00.0,38.6,31.6,19.1,0000.0,0013.04,0005.99,0004.56
2022-07-21 10:54:00,,0829.2,5.00,0.00,29.8,28.3,00.0,38.6,31.7,19.0,0000.0,0013.18,0005.98,0004.55
2022-07-21 10:55:00,,0829.2,5.01,0.00,29.8,28.4,00.0,38.6,31.7,18.8,0000.0,0012.43,0005.95,0004.54
2022-07-21 10:56:00,,0829.3,4.99,0.00,29.8,28.5,00.0,38.6,31.7,19.0,0000.0,0012.66,0005.93,0004.53
2022-07-21 10:57:00,,0829.0,5.00,0.00,29.8,28.6,00.0,38.6,31.7,19.5,0000.0,0012.53,0005.89,0004.53
2022-07-21 10:58:00,,0828.7,5.00,0.00,29.8,28.6,00.0,38.6,31.7,19.7,0000.0,0013.17,0005.95,0004.55
2022-07-21 10:59:00,,0829.0,5.00,0.00,29.9,28.7,00.0,38.6,31.7,20.0,0000.0,0013.54,0006.01,0004.58
